Tracking 19564 objects as of 18-Mar-2019
HD Live streaming from Space Station
objects crossing your sky now

COSMOS 2379

Track COSMOS 2379 now!
COSMOS 2379 is classified as:


NORAD ID: 26892
Int'l Code: 2001-037A
Perigee: 35,763.0 km
Apogee: 35,794.6 km
Inclination: 11.0 °
Period: 1,435.3 minutes
Semi major axis: 42149 km
RCS: 28.2811 m2 (large)
Launch date: August 24, 2001
Source: Commonwealth of Independent States (former USSR) (CIS)
Launch site: TYURATAM MISSILE AND SPACE COMPLEX (TTMTR)

Normally part of a larger constellation.
aabbcc
Your satellite tracking list
Your tracking list is empty




NASA's NSSDC Master Catalog

Two Line Element Set (TLE):
1 26892U 01037A   19076.65089178 +.00000112 +00000-0 +00000-0 0  9999
2 26892 010.9796 032.4692 0003743 242.9931 158.3508 01.00325068064302
Source of the keplerian elements: AFSPC